Tracking 25734 objects as of 27-May-2022
HD Live streaming from Space Station
objects crossing your sky now

BNU-1

Track BNU-1 now!
10-day predictions


NORAD ID: 44529
Int'l Code: 2019-059B
Perigee: 737.9 km
Apogee: 758.2 km
Inclination: 98.5 °
Period: 99.6 minutes
Semi major axis: 7119 km
RCS: Unknown
Launch date: September 12, 2019
Source: People's Republic of China (PRC)
Launch site: Taiyaun Space Center, China (TSC)
aabbcc
Your satellite tracking list
Your tracking list is empty




NASA's NSSDC Master Catalog

Two Line Element Set (TLE):
1 44529U 19059B   22146.83631044  .00000518  00000-0  16011-3 0  9998
2 44529  98.5190 241.8256 0014225 170.5734 189.5716 14.45337437142653
Source of the keplerian elements: AFSPC